New Bedford, MA

2:17 AM EDT on April 21, 2018 (GMT -0400)
New Bedford Regional

Weather History for KEWB - December, 2013

Change the Weather History Date:

Monday, December 2, 2013

  Actual Average Record
Temperature  
Mean Temperature 40 °F -  
Max Temperature 42 °F 46 °F 61 °F (1982)
Min Temperature 37 °F 32 °F 6 °F (1989)
Degree Days  
Heating Degree Days 26    
Moisture  
Dew Point 37 °F    
Average Humidity 96    
Maximum Humidity 100    
Minimum Humidity 85    
Precipitation  
Precipitation 0.00 in - - ()
Sea Level Pressure  
Sea Level Pressure 29.96 in    
Wind  
Wind Speed 3 mph (NNW)    
Max Wind Speed 7 mph    
Max Gust Speed -    
Visibility 4 miles    
Events Fog    
Averages and records for this station are not official NWS values.
T = Trace of Precipitation, MM = Missing Value Source: NWS Daily Summary

Daily Weather History Graph

Daily Weather History Graph

Search for Another Location

Airport or City:

Astronomy

Dec. 02, 2013 Rise Set
Actual Time 6:52 AM EST 4:13 PM EST
Civil Twilight 6:21 AM EST 4:45 PM EST
Nautical Twilight 5:46 AM EST 5:19 PM EST
Astronomical Twilight 5:13 AM EST 5:53 PM EST
Moon 6:13 AM EST (12/2) 4:14 PM EST (12/2)
Length of Visible Light 10h 23m
Length of Day
9h 21m
Waning Crescent, 0% of the Moon is Illuminated
Dec 2
Waning Crescent
Dec 2
New
Dec 9
First Quarter
Dec 17
Full
Dec 25
Last Quarter

Hourly Weather History & Observations

Time (EST) Temp. Windchill Dew Point Humidity Pressure Visibility Wind Dir Wind Speed Gust Speed Precip Events Conditions
12:05 AM 39.2 °F 34.2 °F 37.4 °F 93% 29.98 in 1.0 mi WNW 6.9 mph - N/A   Overcast
12:49 AM 37.4 °F 34.9 °F 37.4 °F 100% 29.99 in 2.0 mi NW 3.5 mph - N/A   Overcast
12:53 AM 37.9 °F - 37.0 °F 97% 29.99 in 2.5 mi Calm Calm - N/A   Overcast
1:35 AM 37.4 °F 34.9 °F 37.4 °F 100% 29.98 in 3.0 mi Variable 3.5 mph - N/A   Overcast
1:53 AM 37.9 °F 35.5 °F 37.0 °F 97% 29.99 in 2.5 mi NNW 3.5 mph - N/A   Overcast
2:08 AM 37.4 °F 34.9 °F 37.4 °F 100% 29.98 in 1.2 mi WNW 3.5 mph - N/A   Overcast
2:24 AM 37.4 °F 34.9 °F 37.4 °F 100% 29.98 in 0.8 mi NW 3.5 mph - N/A   Overcast
2:53 AM 37.0 °F 33.3 °F 37.0 °F 100% 29.98 in 1.0 mi NW 4.6 mph - N/A   Overcast
3:02 AM 37.4 °F 34.9 °F 37.4 °F 100% 29.98 in 0.8 mi Variable 3.5 mph - N/A   Overcast
3:33 AM 37.4 °F 34.9 °F 37.4 °F 100% 29.97 in 1.0 mi North 3.5 mph - N/A   Overcast
3:44 AM 37.4 °F - 37.4 °F 100% 29.97 in 0.8 mi Calm Calm - N/A   Mist
3:53 AM 37.0 °F - 37.0 °F 100% 29.98 in 0.8 mi Calm Calm - N/A   Overcast
4:25 AM 37.4 °F 34.9 °F 37.4 °F 100% 29.97 in 1.0 mi NNW 3.5 mph - N/A   Overcast
4:53 AM 37.0 °F 34.5 °F 37.0 °F 100% 29.98 in 1.0 mi NNW 3.5 mph - N/A   Overcast
5:53 AM 37.0 °F 34.5 °F 37.0 °F 100% 29.97 in 1.2 mi NNW 3.5 mph - N/A   Overcast
6:53 AM 37.0 °F 34.5 °F 37.0 °F 100% 29.98 in 3.0 mi NW 3.5 mph - N/A   Overcast
7:08 AM 37.4 °F - 37.4 °F 100% 29.97 in 2.5 mi Calm Calm - N/A   Overcast
7:53 AM 37.9 °F - 37.0 °F 97% 29.98 in 3.0 mi Calm Calm - N/A   Overcast
8:53 AM 39.0 °F - 37.9 °F 96% 29.97 in 3.0 mi Calm Calm - N/A   Overcast
9:04 AM 39.2 °F - 37.4 °F 93% 29.97 in 1.0 mi Calm Calm - N/A   Overcast
9:53 AM 39.0 °F - 37.9 °F 96% 29.98 in 0.5 mi Calm Calm - N/A Fog Fog
10:21 AM 39.2 °F - 37.4 °F 93% 29.97 in 1.5 mi Calm Calm - N/A   Overcast
10:27 AM 39.2 °F 37.0 °F 39.2 °F 100% 29.97 in 3.0 mi Variable 3.5 mph - N/A   Overcast
10:46 AM 39.2 °F - 39.2 °F 100% 29.97 in 1.8 mi Calm Calm - N/A   Overcast
10:53 AM 39.0 °F 34.8 °F 37.9 °F 96% 29.97 in 1.5 mi West 5.8 mph - N/A   Overcast
11:04 AM 39.2 °F 37.0 °F 39.2 °F 100% 29.97 in 2.5 mi Variable 3.5 mph - N/A   Overcast
11:11 AM 39.2 °F 37.0 °F 39.2 °F 100% 29.97 in 4.0 mi West 3.5 mph - N/A   Overcast
11:53 AM 39.9 °F - 39.0 °F 97% 29.96 in 5.0 mi Calm Calm - N/A   Overcast
12:53 PM 41.0 °F - 39.0 °F 93% 29.94 in 8.0 mi Calm Calm - N/A   Overcast
1:53 PM 41.0 °F - 37.9 °F 89% 29.92 in 10.0 mi Calm Calm - N/A   Overcast
2:53 PM 42.1 °F 40.2 °F 37.9 °F 85% 29.93 in 10.0 mi WNW 3.5 mph - N/A   Overcast
3:53 PM 41.0 °F - 37.9 °F 89% 29.93 in 10.0 mi Calm Calm - N/A   Overcast
4:53 PM 41.0 °F - 37.0 °F 86% 29.94 in 10.0 mi Calm Calm - N/A   Overcast
5:53 PM 39.9 °F 36.7 °F 37.0 °F 89% 29.94 in 10.0 mi NE 4.6 mph - N/A   Overcast
6:53 PM 39.0 °F 34.8 °F 36.0 °F 89% 29.94 in 10.0 mi NE 5.8 mph - N/A   Overcast
7:53 PM 39.0 °F 35.7 °F 36.0 °F 89% 29.95 in 10.0 mi NE 4.6 mph - N/A   Overcast
8:53 PM 39.0 °F 36.8 °F 36.0 °F 89% 29.95 in 9.0 mi NE 3.5 mph - N/A   Overcast
9:53 PM 37.9 °F 35.5 °F 35.1 °F 89% 29.93 in 8.0 mi NE 3.5 mph - N/A   Overcast
10:53 PM 37.9 °F - 35.1 °F 89% 29.92 in 8.0 mi Calm Calm - N/A   Overcast
11:53 PM 37.9 °F - 35.1 °F 89% 29.91 in 6.0 mi Calm Calm - N/A   Overcast